Wasilla, Alaska
Current Conditions -  °F | °C
As of 10:36 AM on Thursday 27 Nov 2014 (Local Time) from PAWS Reporting Station
Overcast Overcast  
Wind Chill:   Ceiling: 100
Heat Index:   Visibility: 0mi
Dew Point:   Wind: 3mph
Humidity: 73%   Direction: 140°SE
Pressure: 30.2"   Gusts: NA
Location:  61.58°N, 149.45°W
Report Text: PAWS 271936Z AUTO 14003KT M1/4SM OVC001 M13/M17 A3020 RMK AO1
Loading
Personal Weather Stations






























Interactive Weather Map New forecast layout! Learn more

10-Day Weather Forecast

Advertisements
Track Severe Weather on mobile